Wind_Speed
56 55 54 50 51 52 56 66 72 67 61 59 53 52 49 41 40 38 40 41 39 40 39 39 37 36 33 27 24 31 33 29 23 21 17 16 13 12 10 5 4 12 16 15 13 14 13 13 13
50 51 49 51 50 54 61 69 65 62 55 52 50 46 47 42 40 38 39 41 41 40 42 39 39 36 33 28 24 31 33 29 23 22 18 17 15 14 9 6 5 6 12 21 17 11 12 14 11
53 52 49 53 51 55 59 67 63 60 55 54 51 47 46 44 41 39 40 42 43 42 41 40 39 34 34 33 24 30 34 27 24 20 18 17 15 15 7 6 6 5 8 14 23 22 17 9 5
50 51 48 40 46 50 55 57 58 56 53 52 47 46 44 43 41 43 44 44 41 43 42 41 40 34 33 30 26 29 33 26 24 20 21 17 15 9 7 5 8 6 4 10 17 17 13 11 10
41 40 43 45 47 51 53 55 51 52 50 46 46 49 42 49 45 46 46 47 44 42 40 42 40 35 28 25 25 29 32 27 25 22 23 22 14 10 8 8 10 6 5 11 19 20 14 12 10
44 42 45 49 51 54 57 55 52 54 50 45 39 44 46 48 47 48 48 48 46 43 43 40 44 39 29 29 24 27 30 29 26 27 26 26 24 18 13 10 10 6 7 12 18 16 12 10 6
62 58 52 61 61 61 61 57 59 57 53 45 40 42 42 48 50 46 48 50 48 45 43 42 43 43 36 28 28 25 28 29 28 32 31 30 32 26 16 14 13 9 10 14 16 11 9 4 4
57 64 68 65 66 69 68 63 61 60 64 55 47 41 41 48 46 46 51 52 49 48 46 40 44 45 42 31 29 29 28 30 30 37 35 35 30 26 22 17 15 15 16 19 16 7 4 5 5
63 55 68 73 71 71 75 69 64 64 66 60 54 52 48 44 50 51 52 55 55 49 51 47 45 45 46 37 32 33 31 30 33 43 39 33 33 26 21 18 16 20 18 19 17 11 5 6 6
69 68 72 71 72 70 78 74 74 70 71 70 63 57 58 55 55 51 52 56 56 52 50 50 49 46 47 44 37 37 34 34 34 44 42 38 29 26 22 20 20 19 18 20 20 14 9 9 9
76 75 74 81 78 75 79 81 81 78 78 79 76 72 63 60 64 65 61 63 59 57 54 53 54 50 49 48 42 38 39 36 37 44 44 34 40 31 26 21 23 20 20 21 21 16 15 16 14
80 84 86 87 87 83 82 88 91 89 87 84 86 76 74 69 68 65 59 62 61 56 54 53 50 50 50 50 47 41 42 40 40 45 45 38 33 23 32 29 27 25 24 23 23 21 22 19 20
76 82 87 88 90 90 88 94 98 95 94 91 91 87 82 79 77 75 71 69 60 59 53 52 49 47 46 51 50 45 44 43 45 48 44 41 38 33 36 34 31 32 25 27 23 25 23 19 23
64 68 74 79 82 87 89 97 97 101 100 96 94 95 90 84 83 80 76 71 65 62 56 55 53 49 47 49 52 49 47 47 50 49 46 48 42 42 38 38 35 34 31 34 25 29 26 25 21
57 61 68 68 70 75 79 95 100 100 99 101 100 100 98 89 84 83 82 77 71 68 65 58 59 55 53 50 54 53 49 50 52 51 44 52 45 30 35 45 41 39 39 40 39 38 32 29 26
51 51 56 66 71 73 77 87 92 100 102 103 104 103 104 100 92 87 85 79 76 77 72 70 62 60 59 55 55 56 54 52 55 54 46 51 39 45 37 48 47 44 35 40 37 37 33 29 26
52 51 53 55 60 69 83 89 91 95 100 104 107 110 109 107 102 97 90 83 80 80 80 77 71 65 63 60 57 59 58 56 58 58 50 50 53 56 42 44 43 47 41 44 43 38 32 28 32
51 56 57 54 56 61 78 88 94 96 99 101 105 110 112 112 105 103 97 89 85 82 84 79 75 68 64 60 60 62 61 60 62 63 57 62 52 56 43 39 51 51 45 49 44 38 37 32 36
56 61 59 62 62 64 78 89 93 98 100 102 102 105 111 113 110 105 101 97 91 87 83 85 79 73 65 64 64 67 66 65 65 63 63 67 53 42 54 42 43 52 48 43 49 44 40 40 36
72 61 60 62 67 73 86 95 99 103 105 103 103 102 103 111 113 108 104 101 99 94 88 88 82 78 73 69 69 68 68 67 68 67 65 66 58 54 57 57 49 51 47 40 41 43 49 49 44
72 65 63 69 75 84 94 104 110 109 108 107 104 100 102 103 110 112 107 105 102 100 96 92 89 85 80 75 72 70 70 67 70 73 72 69 66 64 56 58 58 59 54 52 40 42 45 44 44
60 70 69 68 73 79 93 101 105 109 109 105 104 103 100 98 104 108 111 106 104 100 101 98 94 89 84 80 70 71 73 72 72 77 75 75 71 64 61 66 54 53 57 50 54 53 48 49 47
74 71 72 67 61 63 74 86 85 96 104 105 100 95 97 96 97 99 106 108 105 103 101 103 99 94 87 83 76 71 74 73 71 74 79 76 77 76 62 60 63 55 53 56 48 47 47 49 43
65 60 62 55 60 53 58 71 62 67 82 90 91 88 87 91 93 95 96 104 104 105 103 102 104 100 93 87 84 75 78 76 75 76 78 79 83 78 70 65 65 62 57 65 59 51 51 49 44
59 46 46 46 48 44 46 54 38 44 57 67 77 81 83 84 85 85 82 94 102 104 107 104 106 108 99 91 92 76 75 75 73 72 79 79 85 83 76 74 70 68 58 57 69 66 60 57 47
46 47 35 35 38 36 39 42 36 39 48 56 65 72 74 77 79 79 79 83 95 101 107 108 106 112 106 97 96 84 76 76 73 76 78 86 85 86 85 82 72 70 65 62 59 68 69 59 57
50 43 34 27 28 32 31 35 33 38 45 51 62 66 67 69 73 74 75 81 91 98 106 110 108 113 113 104 98 95 83 75 54 75 80 84 87 89 90 86 78 71 68 64 64 63 65 67 61
49 41 32 26 23 26 28 30 31 38 50 57 62 64 65 68 68 69 71 82 92 98 104 112 114 114 118 110 103 103 92 88 79 65 78 83 90 91 91 89 83 83 70 69 67 66 66 66 64
51 40 33 25 21 19 23 27 33 38 46 58 59 60 63 64 67 67 69 82 92 99 103 112 116 116 118 116 109 106 103 90 81 72 76 84 87 93 93 90 90 86 83 68 71 66 64 60 56
46 38 33 26 20 17 18 25 34 42 47 53 57 60 63 63 66 70 74 85 92 99 103 112 118 118 120 119 115 108 108 100 92 65 71 82 84 92 94 93 96 93 92 85 70 71 70 65 62
Wind_Direction
266 264 261 263 264 263 259 257 262 264 263 264 265 261 263 256 257 254 255 258 255 256 256 257 256 251 251 248 247 231 228 231 236 245 248 232 209 202 177 203 231 235 236 227 207 222 249 277 284
257 259 262 268 263 260 256 257 258 262 260 260 260 260 259 253 252 249 251 250 247 249 251 251 251 252 251 250 240 224 227 230 231 243 238 213 209 202 181 191 237 220 218 219 206 201 236 271 290
258 265 268 265 261 258 257 257 255 258 256 253 251 253 252 251 249 242 242 243 250 248 243 246 249 249 251 253 231 223 221 229 230 230 222 206 208 220 176 206 243 201 221 210 207 223 244 252 173
260 260 259 255 255 257 258 260 259 260 253 251 252 249 250 250 244 243 239 238 240 246 245 240 242 244 251 246 225 219 219 222 228 216 204 188 205 185 176 173 175 170 182 184 181 193 166 152 136
262 259 256 251 255 260 260 259 255 254 249 249 248 246 248 250 245 242 242 243 239 237 240 240 239 239 239 238 221 212 217 218 223 207 191 182 168 204 204 174 186 165 182 158 150 153 148 139 131
252 254 255 255 256 257 258 263 261 256 255 249 246 244 243 243 238 241 243 243 244 245 240 238 238 236 228 228 222 214 213 216 213 193 185 182 176 195 200 190 195 190 168 161 153 152 158 166 159
262 261 253 247 262 260 253 255 253 254 260 251 249 237 244 238 237 238 244 245 244 240 241 236 237 234 228 228 224 217 212 210 204 185 184 184 184 186 198 190 191 213 188 168 164 170 174 202 186
258 251 261 260 260 261 258 259 259 258 252 251 248 236 239 235 239 241 244 244 242 239 238 237 236 233 229 222 219 213 202 204 200 185 184 186 185 178 188 199 206 216 207 186 199 213 217 166 143
265 257 256 260 260 262 260 257 256 257 255 249 240 238 230 229 231 232 236 242 239 236 235 236 235 233 229 220 219 215 200 203 197 189 186 186 185 184 197 210 213 204 212 210 225 233 236 233 191
266 259 258 257 256 259 263 260 255 253 254 254 245 234 232 227 227 228 234 237 239 235 234 234 231 231 228 224 219 216 200 204 201 190 190 188 189 190 202 207 201 202 202 217 230 228 235 246 248
262 261 260 257 255 253 259 262 260 254 252 253 251 244 235 230 232 233 235 237 235 235 232 233 226 227 225 223 219 216 203 204 203 191 187 193 200 195 201 207 212 210 218 232 237 231 239 248 238
264 261 259 257 257 256 257 260 260 258 252 251 252 249 245 235 232 236 238 240 240 239 234 234 233 231 225 221 218 216 204 206 203 193 186 189 196 191 222 234 211 210 221 231 231 230 233 240 250
266 265 261 258 257 255 253 255 256 255 255 250 250 249 245 243 237 235 235 234 237 241 241 237 234 235 234 224 217 214 206 203 200 194 188 189 196 205 216 204 229 234 222 245 241 234 245 253 261
267 265 264 260 257 256 254 251 253 254 253 253 250 249 245 241 241 238 234 234 236 239 238 242 236 234 234 231 222 215 210 202 201 193 192 188 203 198 210 213 213 227 234 234 223 243 238 244 250
267 266 265 263 261 256 253 252 250 251 250 251 250 250 249 243 236 235 236 233 234 234 236 238 234 237 235 233 221 218 212 205 206 196 192 187 200 195 214 216 212 208 218 216 229 239 237 244 247
269 270 271 266 258 255 253 251 249 247 248 248 247 247 248 247 239 236 230 230 231 233 230 229 233 232 235 235 224 215 214 205 207 198 196 186 190 213 221 220 213 217 230 229 236 233 245 238 247
272 273 269 265 265 261 253 251 249 248 244 244 245 245 244 244 242 238 233 232 226 227 229 227 225 226 229 234 230 217 214 206 207 202 196 189 195 202 204 215 225 220 216 220 226 234 241 249 259
281 284 286 275 261 254 252 252 250 247 247 243 241 242 244 243 240 238 234 230 230 223 228 226 225 224 226 223 227 218 214 207 206 206 197 188 201 209 216 221 227 217 216 220 227 231 238 243 252
293 293 287 279 263 255 255 245 246 246 245 244 242 241 240 243 240 236 234 230 228 225 222 227 224 221 218 224 221 220 215 210 206 205 200 197 193 199 208 201 214 220 219 223 232 240 238 243 244
300 288 270 262 261 253 249 246 245 244 245 243 242 240 238 239 240 237 234 229 227 225 223 224 223 221 220 217 220 219 216 214 206 208 205 198 201 207 216 222 218 219 212 223 238 242 246 246 246
301 280 265 255 256 250 247 245 247 248 249 249 245 241 237 236 236 237 233 230 225 225 224 219 222 222 218 218 215 214 217 218 211 208 206 202 201 206 206 213 224 222 219 218 233 233 237 238 244
294 288 274 261 256 252 254 250 247 249 250 251 249 245 241 237 235 234 234 229 226 222 221 219 218 221 218 214 212 215 212 218 217 211 210 206 199 208 209 214 212 217 223 217 232 236 242 246 251
304 295 290 283 272 257 256 257 253 251 248 249 253 250 244 240 236 235 232 231 225 221 219 214 213 217 218 212 210 213 213 215 216 213 213 208 199 204 217 215 213 223 222 220 227 226 242 241 241
300 295 288 283 279 276 249 257 257 251 249 249 251 251 247 242 240 237 232 230 226 220 217 213 210 213 216 210 206 210 211 213 215 216 214 211 206 209 214 222 223 216 223 223 224 218 226 232 243
304 294 288 282 275 270 262 261 270 250 243 242 243 244 244 242 239 236 231 227 226 219 216 212 209 210 213 210 208 206 212 211 215 214 214 217 211 212 212 214 217 219 221 230 225 229 235 233 241
317 315 302 286 277 266 261 264 260 238 232 232 234 236 236 234 232 229 224 223 222 219 215 211 208 208 210 210 208 203 205 210 212 218 216 217 215 215 214 213 218 219 223 225 227 229 236 233 233
325 319 314 292 273 265 254 253 249 232 221 225 230 232 229 227 227 221 217 212 217 216 213 211 207 207 208 208 206 202 202 206 203 223 222 219 217 216 217 216 216 217 226 230 236 238 235 234 239
335 329 320 306 283 265 251 240 236 227 215 215 224 226 223 222 220 215 209 206 212 213 210 209 207 205 207 207 205 205 203 203 206 213 219 222 220 217 217 217 217 214 219 229 228 233 236 239 240
336 335 327 317 298 274 256 239 229 217 217 219 220 224 225 219 217 213 208 202 210 211 208 207 207 205 205 206 206 205 204 201 205 212 219 221 221 220 217 216 218 216 217 223 229 234 236 235 240
340 343 333 324 310 291 265 242 230 223 214 218 219 218 223 222 215 214 207 202 208 210 208 204 206 205 204 207 205 206 204 203 201 202 221 216 222 223 220 217 220 219 221 224 228 231 236 237 238
Height
10752 10754 10755 10758 10759 10756 10749 10737 10731 10748 10757 10760 10769 10770 10775 10779 10782 10786 10787 10789 10792 10791 10795 10797 10800 10803 10806 10808 10810 10810 10815 10821 10824 10827 10827 10827 10830 10832 10833 10835 10836 10838 10841 10842 10844 10846 10849 10849 10849
10741 10744 10746 10748 10747 10740 10730 10721 10730 10741 10751 10756 10760 10764 10765 10770 10774 10776 10777 10779 10782 10786 10787 10790 10793 10796 10799 10803 10804 10807 10811 10817 10822 10824 10824 10826 10829 10831 10832 10834 10835 10836 10838 10840 10842 10846 10847 10849 10849
10730 10734 10736 10735 10731 10725 10717 10712 10726 10731 10741 10743 10748 10754 10756 10761 10765 10768 10769 10771 10775 10778 10782 10784 10787 10791 10794 10797 10799 10802 10808 10813 10818 10822 10822 10825 10828 10830 10830 10833 10834 10834 10836 10838 10841 10844 10846 10848 10848
10722 10725 10727 10723 10715 10712 10708 10711 10716 10722 10730 10733 10741 10745 10749 10752 10756 10757 10758 10761 10766 10770 10774 10778 10781 10786 10789 10791 10794 10798 10803 10809 10815 10818 10820 10826 10827 10830 10831 10832 10834 10835 10837 10837 10838 10843 10846 10847 10849
10712 10715 10718 10712 10703 10700 10700 10701 10709 10711 10719 10727 10733 10736 10739 10745 10748 10747 10750 10754 10758 10762 10765 10770 10774 10780 10784 10786 10789 10792 10799 10806 10812 10814 10818 10824 10827 10830 10833 10832 10834 10835 10838 10838 10839 10842 10846 10847 10849
10704 10707 10707 10701 10693 10689 10689 10694 10701 10703 10708 10719 10723 10726 10731 10733 10737 10739 10742 10747 10751 10756 10759 10763 10766 10772 10777 10781 10784 10788 10794 10801 10807 10809 10815 10821 10824 10829 10832 10833 10834 10835 10837 10838 10840 10843 10846 10848 10849
10691 10694 10693 10690 10679 10674 10679 10685 10690 10693 10699 10708 10714 10716 10720 10723 10726 10731 10733 10737 10743 10749 10753 10757 10758 10764 10770 10774 10779 10783 10789 10797 10802 10805 10810 10817 10819 10824 10829 10832 10833 10835 10837 10839 10842 10843 10845 10846 10848
10679 10684 10677 10673 10668 10655 10664 10677 10682 10687 10689 10697 10702 10708 10709 10715 10720 10723 10722 10726 10731 10738 10743 10749 10751 10755 10761 10767 10772 10778 10784 10792 10798 10801 10804 10811 10816 10820 10825 10829 10831 10833 10836 10838 10840 10842 10844 10844 10846
10665 10669 10660 10656 10655 10648 10646 10666 10672 10672 10669 10679 10687 10694 10698 10701 10702 10706 10708 10707 10716 10726 10731 10737 10741 10747 10753 10760 10765 10772 10778 10786 10793 10796 10800 10806 10812 10816 10821 10826 10829 10831 10834 10837 10839 10841 10842 10843 10845
10648 10648 10640 10641 10644 10646 10631 10646 10650 10654 10652 10657 10672 10680 10684 10688 10691 10696 10698 10697 10703 10714 10722 10728 10734 10739 10746 10754 10760 10767 10773 10780 10786 10792 10796 10802 10808 10813 10818 10822 10826 10829 10831 10834 10836 10839 10840 10841 10843
10626 10623 10623 10621 10628 10631 10622 10621 10623 10635 10640 10637 10643 10659 10673 10679 10683 10687 10687 10685 10691 10702 10711 10716 10723 10729 10736 10746 10755 10761 10768 10775 10780 10786 10792 10798 10803 10810 10814 10819 10823 10827 10829 10831 10833 10837 10838 10840 10841
10603 10600 10599 10601 10604 10610 10614 10598 10597 10605 10613 10623 10615 10643 10653 10666 10669 10677 10686 10687 10692 10701 10709 10714 10722 10726 10730 10736 10746 10754 10761 10769 10775 10780 10788 10794 10801 10805 10811 10814 10820 10823 10826 10828 10830 10834 10835 10837 10838
10577 10570 10573 10579 10582 10586 10590 10575 10567 10577 10588 10600 10599 10612 10628 10640 10649 10659 10668 10672 10680 10692 10707 10710 10716 10722 10728 10732 10738 10746 10753 10762 10768 10775 10782 10789 10796 10801 10805 10809 10815 10819 10823 10825 10827 10829 10830 10834 10834
10554 10551 10546 10554 10559 10561 10564 10546 10552 10552 10564 10573 10583 10581 10598 10617 10631 10641 10650 10661 10672 10680 10690 10705 10709 10711 10717 10725 10734 10739 10746 10754 10760 10767 10775 10783 10789 10793 10798 10805 10810 10813 10818 10821 10822 10825 10826 10829 10830
10538 10533 10526 10529 10532 10534 10536 10522 10528 10529 10536 10545 10555 10561 10564 10590 10606 10619 10632 10646 10657 10664 10674 10685 10693 10702 10708 10714 10723 10733 10741 10749 10755 10759 10766 10775 10783 10791 10795 10798 10803 10807 10811 10816 10818 10821 10822 10825 10825
10520 10515 10507 10504 10508 10509 10507 10495 10501 10505 10507 10516 10526 10534 10540 10554 10581 10595 10609 10625 10642 10646 10654 10663 10677 10687 10697 10704 10713 10722 10732 10742 10748 10753 10760 10768 10780 10786 10788 10791 10796 10801 10806 10811 10813 10815 10818 10820 10821
10500 10496 10487 10485 10486 10483 10475 10471 10475 10475 10482 10487 10494 10504 10513 10526 10547 10568 10588 10603 10618 10629 10633 10645 10657 10669 10680 10697 10705 10714 10723 10732 10740 10747 10754 10761 10765 10772 10777 10783 10788 10794 10800 10805 10806 10807 10811 10814 10816
10480 10470 10462 10458 10460 10455 10437 10440 10445 10447 10452 10459 10466 10475 10482 10495 10519 10537 10560 10581 10595 10608 10612 10628 10642 10654 10670 10682 10694 10702 10711 10721 10729 10737 10743 10752 10759 10766 10774 10779 10781 10785 10790 10793 10798 10801 10805 10809 10812
10450 10441 10435 10427 10425 10425 10401 10407 10408 10410 10420 10430 10441 10450 10459 10467 10486 10508 10530 10557 10570 10587 10600 10605 10624 10638 10653 10669 10678 10688 10699 10709 10719 10727 10734 10741 10750 10761 10761 10765 10770 10776 10782 10787 10792 10795 10799 10803 10805
10415 10407 10400 10398 10392 10386 10368 10370 10371 10376 10384 10396 10410 10424 10434 10444 10454 10478 10502 10528 10548 10566 10580 10590 10608 10622 10637 10647 10662 10677 10692 10698 10708 10718 10725 10732 10738 10744 10751 10756 10761 10767 10773 10781 10785 10788 10792 10794 10799
10378 10363 10367 10363 10355 10351 10335 10335 10336 10343 10354 10363 10377 10391 10407 10418 10429 10445 10470 10496 10521 10541 10559 10575 10587 10601 10616 10630 10645 10659 10677 10691 10697 10702 10709 10717 10725 10734 10737 10744 10750 10757 10764 10769 10777 10780 10782 10786 10791
10352 10330 10325 10330 10325 10326 10303 10304 10309 10311 10322 10331 10346 10361 10377 10394 10403 10420 10437 10464 10490 10514 10534 10554 10566 10581 10598 10615 10634 10645 10655 10673 10684 10690 10700 10710 10716 10725 10729 10736 10739 10745 10753 10759 10765 10769 10772 10778 10782
10314 10302 10291 10289 10289 10289 10285 10269 10284 10290 10296 10305 10315 10333 10349 10365 10380 10396 10412 10432 10461 10486 10508 10530 10546 10562 10580 10601 10618 10631 10644 10652 10667 10680 10690 10697 10706 10713 10719 10726 10730 10738 10743 10750 10756 10761 10763 10768 10772
10293 10280 10263 10257 10251 10258 10258 10240 10253 10268 10272 10282 10293 10305 10322 10339 10353 10370 10388 10405 10431 10457 10481 10504 10527 10540 10560 10581 10599 10611 10621 10636 10651 10664 10676 10687 10694 10699 10706 10714 10720 10728 10734 10739 10746 10749 10754 10758 10763
10263 10258 10246 10234 10230 10231 10229 10224 10239 10245 10249 10257 10268 10278 10294 10311 10327 10343 10361 10381 10402 10431 10455 10479 10504 10519 10539 10562 10579 10595 10609 10626 10638 10649 10662 10672 10680 10688 10692 10700 10709 10717 10724 10729 10733 10740 10745 10749 10754
10247 10231 10227 10219 10211 10212 10210 10210 10218 10224 10228 10235 10243 10254 10268 10282 10298 10317 10335 10355 10376 10402 10429 10455 10478 10499 10518 10540 10559 10577 10595 10605 10623 10635 10643 10654 10663 10671 10678 10688 10700 10706 10712 10717 10721 10729 10734 10739 10743
10227 10215 10208 10203 10199 10195 10196 10195 10200 10205 10210 10218 10224 10233 10246 10259 10274 10291 10312 10333 10353 10376 10403 10429 10453 10475 10496 10517 10540 10560 10578 10596 10614 10618 10627 10637 10647 10653 10664 10675 10684 10695 10701 10705 10711 10718 10724 10729 10733
10212 10203 10195 10190 10187 10184 10182 10182 10184 10189 10192 10197 10204 10213 10225 10240 10255 10273 10293 10312 10328 10350 10377 10403 10428 10451 10473 10495 10518 10541 10561 10571 10584 10595 10610 10621 10629 10635 10645 10661 10672 10679 10687 10694 10700 10707 10713 10717 10723
10201 10192 10184 10179 10176 10173 10171 10171 10171 10173 10179 10183 10190 10201 10212 10226 10240 10257 10274 10293 10309 10328 10353 10380 10404 10428 10451 10475 10497 10518 10541 10554 10567 10581 10592 10600 10611 10622 10632 10646 10657 10667 10675 10680 10688 10694 10700 10706 10711
10198 10188 10177 10171 10168 10165 10163 10163 10161 10161 10163 10170 10180 10187 10196 10212 10226 10241 10257 10276 10290 10308 10332 10357 10380 10405 10431 10453 10475 10497 10518 10534 10544 10543 10562 10581 10592 10601 10615 10629 10634 10648 10659 10668 10677 10683 10689 10693 10698